Bellingham, WA

12:43 PM PDT on October 22, 2017 (GMT -0700)
Bellingham International

Weather History for KBLI - August, 2013

Change the Weather History Date:

Saturday, August 24, 2013

  Actual Average Record
Temperature  
Mean Temperature 64 °F 62 °F  
Max Temperature 70 °F 71 °F 85 °F (1958)
Min Temperature 58 °F 52 °F 41 °F (2003)
Degree Days  
Heating Degree Days 1 3  
Month to date heating degree days 21 53  
Since 1 June heating degree days 197 355  
Cooling Degree Days 0 0  
Month to date cooling degree days 23 0  
Year to date cooling degree days 72 23  
Since 1 June cooling degree days 72 23  
Growing Degree Days 14 (Base 50)    
Moisture  
Dew Point 56 °F    
Average Humidity 75    
Maximum Humidity 97    
Minimum Humidity 53    
Precipitation  
Precipitation 0.09 in 0.05 in 1.12 in (2004)
Month to date precipitation 0.53 0.89  
Year to date precipitation 15.44 20.01  
Sea Level Pressure  
Sea Level Pressure 29.90 in    
Wind  
Wind Speed 5 mph (SSE)    
Max Wind Speed 12 mph    
Max Gust Speed 16 mph    
Visibility 8 miles    
Events Rain    
T = Trace of Precipitation, MM = Missing Value Source: NWS Daily Summary

Daily Weather History Graph

Daily Weather History Graph

Search for Another Location

Airport or City:

Trip Planner

Search our weather history database for the weather conditions in past years. The results will help you decide how hot, cold, wet, or windy it might be!

Date:

Astronomy

Aug. 24, 2013 Rise Set
Actual Time 6:16 AM PDT 8:07 PM PDT
Civil Twilight 5:42 AM PDT 8:41 PM PDT
Nautical Twilight 5:01 AM PDT 9:22 PM PDT
Astronomical Twilight 4:15 AM PDT 10:07 PM PDT
Moon 9:37 PM PDT (8/24) 10:47 AM PDT (8/24)
Length of Visible Light 14h 58m
Length of Day
13h 51m
Waning Gibbous, 83% of the Moon is Illuminated
Aug 24
Waning Gibbous
Aug 28
Last Quarter
Sep 5
New
Sep 12
First Quarter
Sep 19
Full

Hourly Weather History & Observations

Time (PDT) Temp. Dew Point Humidity Pressure Visibility Wind Dir Wind Speed Gust Speed Precip Events Conditions
12:53 AM 61.0 °F 57.0 °F 87% 29.90 in 10.0 mi Calm Calm - 0.00 in   Overcast
1:46 AM 62.6 °F 59.0 °F 88% 29.88 in 4.0 mi Calm Calm - 0.02 in Rain Rain
1:53 AM 61.0 °F 57.9 °F 90% 29.90 in 4.0 mi Calm Calm - 0.03 in Rain Light Rain
2:53 AM 61.0 °F 59.0 °F 93% 29.91 in 4.0 mi ESE 4.6 mph - 0.02 in Rain Light Rain
3:25 AM 60.8 °F 59.0 °F 94% 29.89 in 3.0 mi Calm Calm - 0.01 in Rain Light Rain
3:33 AM 60.8 °F 59.0 °F 94% 29.89 in 2.0 mi SSE 4.6 mph - 0.03 in Rain Light Rain
3:46 AM 60.8 °F 59.0 °F 94% 29.88 in 5.0 mi ESE 4.6 mph - 0.04 in Rain Light Rain
3:53 AM 61.0 °F 59.0 °F 93% 29.91 in 9.0 mi ESE 4.6 mph - 0.04 in   Overcast
4:53 AM 60.1 °F 57.9 °F 93% 29.90 in 10.0 mi ESE 5.8 mph - 0.00 in   Overcast
5:53 AM 60.1 °F 57.9 °F 93% 29.90 in 10.0 mi South 4.6 mph - N/A   Overcast
6:09 AM 59.0 °F 57.2 °F 94% 29.88 in 9.0 mi SSE 4.6 mph - N/A   Overcast
6:53 AM 59.0 °F 57.0 °F 93% 29.90 in 7.0 mi South 5.8 mph - N/A   Overcast
7:53 AM 59.0 °F 57.9 °F 96% 29.91 in 10.0 mi South 3.5 mph - N/A   Overcast
8:12 AM 59.0 °F 57.2 °F 94% 29.89 in 8.0 mi South 4.6 mph - N/A   Overcast
8:53 AM 60.1 °F 57.0 °F 90% 29.91 in 9.0 mi South 6.9 mph - N/A   Overcast
9:53 AM 60.1 °F 57.9 °F 93% 29.92 in 10.0 mi South 6.9 mph - N/A   Overcast
10:03 AM 60.8 °F 57.2 °F 88% 29.90 in 10.0 mi SSE 6.9 mph - N/A   Overcast
10:53 AM 62.1 °F 57.9 °F 86% 29.92 in 10.0 mi South 8.1 mph - N/A   Overcast
11:53 AM 64.0 °F 57.0 °F 78% 29.93 in 10.0 mi South 9.2 mph - N/A   Overcast
12:53 PM 64.9 °F 57.0 °F 75% 29.92 in 10.0 mi South 8.1 mph - N/A   Overcast
1:53 PM 66.9 °F 55.9 °F 68% 29.92 in 10.0 mi South 8.1 mph - N/A   Overcast
2:53 PM 68.0 °F 55.0 °F 63% 29.91 in 10.0 mi South 9.2 mph - N/A   Mostly Cloudy
3:53 PM 68.0 °F 53.1 °F 59% 29.91 in 10.0 mi Variable 6.9 mph - N/A   Overcast
4:53 PM 68.0 °F 53.1 °F 59% 29.91 in 10.0 mi Variable 5.8 mph - N/A   Mostly Cloudy
5:53 PM 70.0 °F 52.0 °F 53% 29.90 in 10.0 mi South 8.1 mph - N/A   Scattered Clouds
6:53 PM 66.9 °F 51.1 °F 57% 29.89 in 10.0 mi Variable 5.8 mph - N/A   Clear
7:53 PM 64.0 °F 51.1 °F 63% 29.89 in 10.0 mi South 4.6 mph - N/A   Clear
8:53 PM 64.0 °F 52.0 °F 65% 29.91 in 10.0 mi South 5.8 mph - N/A   Overcast
9:53 PM 62.1 °F 52.0 °F 70% 29.92 in 10.0 mi South 3.5 mph - N/A   Overcast
10:53 PM 60.1 °F 53.1 °F 78% 29.92 in 10.0 mi Calm Calm - N/A   Mostly Cloudy
11:53 PM 59.0 °F 53.1 °F 81% 29.93 in 10.0 mi Calm Calm - N/A   Overcast